| time (UTC) | temp F | wind direction | speed MPH | gust MPH | rain 1hr in | rain 24hr in | rain mn in | humidity % | barometer mb |
| 20260505113733 | 60 | 54 | 0.0 | 1.0 | 0.00 | 0.00 | 0.00 | 79 | 1016.7 |
| 20260505113229 | 60 | 63 | 0.0 | 0.0 | 0.00 | 0.00 | 0.00 | 78 | 1016.7 |
| 20260505112725 | 60 | 58 | 0.0 | 0.0 | 0.00 | 0.00 | 0.00 | 78 | 1016.8 |
| 20260505112223 | 60 | 76 | 1.0 | 1.0 | 0.00 | 0.00 | 0.00 | 78 | 1016.6 |
| 20260505111723 | 60 | 59 | 0.0 | 1.0 | 0.00 | 0.00 | 0.00 | 77 | 1016.4 |
| 20260505111219 | 60 | 73 | 2.0 | 2.0 | 0.00 | 0.00 | 0.00 | 77 | 1016.4 |
| 20260505110715 | 60 | 58 | 0.0 | 1.0 | 0.00 | 0.00 | 0.00 | 78 | 1016.5 |
| 20260505110213 | 60 | 85 | 1.0 | 2.0 | 0.00 | 0.00 | 0.00 | 78 | 1016.4 |
| 20260505102148 | 59 | 66 | 0.0 | 2.0 | 0.00 | 0.00 | 0.00 | 78 | 1016.2 |
| 20260505101647 | 59 | 77 | 0.0 | 0.0 | 0.00 | 0.00 | 0.00 | 78 | 1016.2 |
| 20260505101143 | 59 | 39 | 0.0 | 0.0 | 0.00 | 0.00 | 0.00 | 78 | 1016.0 |
| 20260505100639 | 59 | 40 | 0.0 | 1.0 | 0.00 | 0.00 | 0.00 | 78 | 1016.1 |
| 20260505100136 | 59 | 35 | 0.0 | 1.0 | 0.00 | 0.00 | 0.00 | 77 | 1016.0 |
| 20260505095632 | 60 | 33 | 0.0 | 1.0 | 0.00 | 0.00 | 0.00 | 77 | 1016.0 |
| 20260505095129 | 60 | 65 | 0.0 | 6.0 | 0.00 | 0.00 | 0.00 | 76 | 1016.1 |
| 20260505094626 | 59 | 69 | 1.0 | 2.0 | 0.00 | 0.00 | 0.00 | 77 | 1016.0 |
| 20260505094122 | 59 | 69 | 0.0 | 1.0 | 0.00 | 0.00 | 0.00 | 77 | 1016.0 |
| 20260505093618 | 59 | 61 | 1.0 | 4.0 | 0.00 | 0.00 | 0.00 | 78 | 1015.9 |
| 20260505093115 | 59 | 35 | 1.0 | 1.0 | 0.00 | 0.00 | 0.00 | 78 | 1015.8 |
| 20260505092612 | 59 | 49 | 0.0 | 1.0 | 0.00 | 0.00 | 0.00 | 78 | 1015.8 |
| 20260505092112 | 59 | 56 | 0.0 | 0.0 | 0.00 | 0.00 | 0.00 | 78 | 1015.9 |
| 20260505091608 | 59 | 60 | 0.0 | 0.0 | 0.00 | 0.00 | 0.00 | 78 | 1015.9 |
| 20260505091106 | 59 | 37 | 0.0 | 1.0 | 0.00 | 0.00 | 0.00 | 77 | 1016.0 |
| 20260505090604 | 59 | 137 | 0.0 | 1.0 | 0.00 | 0.00 | 0.00 | 77 | 1015.9 |
| 20260505085558 | 60 | 71 | 0.0 | 2.0 | 0.00 | 0.00 | 0.00 | 75 | 1016.1 |
| 20260505085057 | 60 | 80 | 0.0 | 0.0 | 0.00 | 0.00 | 0.00 | 75 | 1015.7 |
| 20260505084555 | 60 | 63 | 0.0 | 1.0 | 0.00 | 0.00 | 0.00 | 75 | 1015.9 |
| 20260505084052 | 59 | 65 | 1.0 | 1.0 | 0.00 | 0.00 | 0.00 | 75 | 1015.8 |
| 20260505083549 | 60 | 46 | 0.0 | 0.0 | 0.00 | 0.00 | 0.00 | 74 | 1015.9 |
| 20260505083046 | 59 | 66 | 0.0 | 1.0 | 0.00 | 0.00 | 0.00 | 74 | 1016.0 |
| 20260505082542 | 59 | 67 | 0.0 | 1.0 | 0.00 | 0.00 | 0.00 | 75 | 1015.7 |
| 20260505082039 | 59 | 66 | 0.0 | 2.0 | 0.00 | 0.00 | 0.00 | 75 | 1015.8 |
| 20260505081535 | 59 | 100 | 1.0 | 1.0 | 0.00 | 0.00 | 0.00 | 75 | 1015.8 |
| 20260505081032 | 59 | 65 | 0.0 | 1.0 | 0.00 | 0.00 | 0.00 | 74 | 1015.5 |
| 20260505080528 | 59 | 61 | 0.0 | 2.0 | 0.00 | 0.00 | 0.00 | 74 | 1015.5 |
| 20260505080025 | 59 | 61 | 0.0 | 0.0 | 0.00 | 0.00 | 0.00 | 73 | 1015.6 |
| 20260505075521 | 59 | 62 | 0.0 | 0.0 | 0.00 | 0.00 | 0.00 | 72 | 1015.7 |
| 20260505075018 | 59 | 44 | 0.0 | 0.0 | 0.00 | 0.00 | 0.00 | 71 | 1015.7 |
| 20260505074515 | 59 | 62 | 0.0 | 1.0 | 0.00 | 0.00 | 0.00 | 71 | 1015.6 |
| 20260505074013 | 60 | 65 | 0.0 | 1.0 | 0.00 | 0.00 | 0.00 | 70 | 1015.6 |
| 20260505073510 | 60 | 65 | 0.0 | 1.0 | 0.00 | 0.00 | 0.00 | 70 | 1015.5 |
| 20260505073008 | 60 | 80 | 0.0 | 1.0 | 0.00 | 0.00 | 0.00 | 70 | 1015.4 |
| 20260505072503 | 60 | 96 | 0.0 | 2.0 | 0.00 | 0.00 | 0.00 | 70 | 1015.4 |
| 20260505071959 | 60 | 62 | 0.0 | 0.0 | 0.00 | 0.00 | 0.00 | 70 | 1015.5 |
| 20260505071455 | 59 | 65 | 0.0 | 2.0 | 0.00 | 0.00 | 0.00 | 70 | 1015.5 |
| 20260505070954 | 60 | 56 | 0.0 | 0.0 | 0.00 | 0.00 | 0.00 | 69 | 1015.6 |
| 20260505070450 | 60 | 59 | 0.0 | 1.0 | 0.00 | 0.00 | 0.00 | 69 | 1015.6 |
| 20260505065946 | 60 | 71 | 0.0 | 1.0 | 0.00 | 0.00 | 0.00 | 69 | 1015.3 |
| 20260505065443 | 60 | 67 | 0.0 | 1.0 | 0.00 | 0.00 | 0.00 | 68 | 1015.5 |
| 20260505064939 | 60 | 68 | 0.0 | 1.0 | 0.00 | 0.00 | 0.00 | 69 | 1015.4 |
| 20260505064436 | 60 | 144 | 1.0 | 1.0 | 0.00 | 0.00 | 0.00 | 68 | 1015.5 |
| 20260505063935 | 60 | 81 | 1.0 | 1.0 | 0.00 | 0.00 | 0.00 | 68 | 1015.6 |
| 20260505063431 | 60 | 62 | 0.0 | 2.0 | 0.00 | 0.00 | 0.00 | 67 | 1015.7 |
| 20260505062927 | 61 | 54 | 0.0 | 0.0 | 0.00 | 0.00 | 0.00 | 66 | 1015.7 |
| 20260505062425 | 61 | 141 | 1.0 | 3.0 | 0.00 | 0.00 | 0.00 | 66 | 1015.7 |
| 20260505061921 | 61 | 58 | 0.0 | 0.0 | 0.00 | 0.00 | 0.00 | 66 | 1015.7 |
| 20260505061420 | 61 | 67 | 0.0 | 0.0 | 0.00 | 0.00 | 0.00 | 66 | 1015.8 |
| 20260505060917 | 61 | 47 | 0.0 | 0.0 | 0.00 | 0.00 | 0.00 | 66 | 1015.9 |
| 20260505060414 | 61 | 80 | 0.0 | 2.0 | 0.00 | 0.00 | 0.00 | 64 | 1015.8 |
| 20260505055910 | 62 | 55 | 1.0 | 1.0 | 0.00 | 0.00 | 0.00 | 64 | 1015.7 |
| 20260505055406 | 62 | 87 | 1.0 | 3.0 | 0.00 | 0.00 | 0.00 | 64 | 1016.0 |
| 20260505054903 | 62 | 70 | 1.0 | 2.0 | 0.00 | 0.00 | 0.00 | 63 | 1015.8 |
| 20260505054400 | 62 | 68 | 1.0 | 2.0 | 0.00 | 0.00 | 0.00 | 63 | 1015.8 |
| 20260505053858 | 62 | 85 | 1.0 | 1.0 | 0.00 | 0.00 | 0.00 | 63 | 1016.0 |
| 20260505053355 | 62 | 152 | 2.0 | 3.0 | 0.00 | 0.00 | 0.00 | 63 | 1016.0 |
| 20260505052852 | 62 | 87 | 0.0 | 2.0 | 0.00 | 0.00 | 0.00 | 62 | 1015.9 |
| 20260505052349 | 62 | 67 | 0.0 | 1.0 | 0.00 | 0.00 | 0.00 | 61 | 1016.1 |
| 20260505051846 | 62 | 83 | 1.0 | 2.0 | 0.00 | 0.00 | 0.00 | 61 | 1016.0 |
| 20260505051343 | 63 | 50 | 0.0 | 2.0 | 0.00 | 0.00 | 0.00 | 62 | 1016.1 |
| 20260505050841 | 63 | 78 | 1.0 | 1.0 | 0.00 | 0.00 | 0.00 | 61 | 1016.0 |
| 20260505050340 | 63 | 72 | 0.0 | 2.0 | 0.00 | 0.00 | 0.00 | 61 | 1015.9 |
| 20260505041307 | 63 | 51 | 0.0 | 2.0 | 0.00 | 0.00 | 0.00 | 59 | 1016.0 |
| 20260505040804 | 63 | 61 | 0.0 | 1.0 | 0.00 | 0.00 | 0.00 | 59 | 1015.9 |
| 20260505040301 | 63 | 64 | 0.0 | 1.0 | 0.00 | 0.00 | 0.00 | 59 | 1016.1 |
| 20260505035758 | 63 | 50 | 0.0 | 1.0 | 0.00 | 0.00 | 0.00 | 58 | 1016.2 |
| 20260505035253 | 64 | 72 | 0.0 | 2.0 | 0.00 | 0.00 | 0.00 | 59 | 1016.3 |
| 20260505034751 | 64 | 69 | 1.0 | 2.0 | 0.00 | 0.00 | 0.00 | 59 | 1016.2 |
| 20260505034248 | 64 | 183 | 1.0 | 3.0 | 0.00 | 0.00 | 0.00 | 58 | 1016.2 |
| 20260505033744 | 64 | 70 | 0.0 | 1.0 | 0.00 | 0.00 | 0.00 | 58 | 1016.3 |
| 20260505033242 | 64 | 57 | 0.0 | 2.0 | 0.00 | 0.00 | 0.00 | 58 | 1016.2 |
| 20260505032740 | 64 | 78 | 1.0 | 2.0 | 0.00 | 0.00 | 0.00 | 58 | 1016.4 |
| 20260505032235 | 64 | 80 | 0.0 | 1.0 | 0.00 | 0.00 | 0.00 | 58 | 1016.3 |
| 20260505031733 | 64 | 72 | 0.0 | 1.0 | 0.00 | 0.00 | 0.00 | 58 | 1016.1 |
| 20260505031229 | 65 | 67 | 0.0 | 1.0 | 0.00 | 0.00 | 0.00 | 57 | 1016.3 |
| 20260505030726 | 65 | 62 | 0.0 | 3.0 | 0.00 | 0.00 | 0.00 | 57 | 1016.3 |
| 20260505030222 | 65 | 63 | 1.0 | 1.0 | 0.00 | 0.00 | 0.00 | 57 | 1016.3 |
| 20260505025718 | 65 | 223 | 1.0 | 2.0 | 0.00 | 0.00 | 0.00 | 57 | 1016.5 |
| 20260505025217 | 65 | 58 | 1.0 | 1.0 | 0.00 | 0.00 | 0.00 | 57 | 1016.3 |
| 20260505024714 | 65 | 46 | 0.0 | 1.0 | 0.00 | 0.00 | 0.00 | 56 | 1016.2 |
| 20260505024211 | 66 | 66 | 0.0 | 2.0 | 0.00 | 0.00 | 0.00 | 56 | 1016.2 |
| 20260505023709 | 66 | 75 | 0.0 | 1.0 | 0.00 | 0.00 | 0.00 | 56 | 1016.2 |
| 20260505023206 | 66 | 78 | 0.0 | 3.0 | 0.00 | 0.00 | 0.00 | 55 | 1016.2 |
| 20260505022703 | 66 | 65 | 0.0 | 2.0 | 0.00 | 0.00 | 0.00 | 54 | 1016.0 |
| 20260505022200 | 66 | 82 | 2.0 | 2.0 | 0.00 | 0.00 | 0.00 | 54 | 1016.1 |
| 20260505021657 | 66 | 60 | 0.0 | 2.0 | 0.00 | 0.00 | 0.00 | 54 | 1016.2 |
| 20260505021153 | 66 | 55 | 0.0 | 2.0 | 0.00 | 0.00 | 0.00 | 53 | 1016.0 |
| 20260505020649 | 66 | 45 | 0.0 | 2.0 | 0.00 | 0.00 | 0.00 | 53 | 1015.8 |
| 20260505020145 | 65 | 101 | 2.0 | 4.0 | 0.00 | 0.00 | 0.00 | 52 | 1015.9 |
| 20260505015643 | 64 | 68 | 0.0 | 2.0 | 0.00 | 0.00 | 0.00 | 53 | 1015.8 |
| 20260505015139 | 62 | 61 | 1.0 | 2.0 | 0.00 | 0.00 | 0.00 | 54 | 1016.0 |
| 20260505014636 | 61 | 59 | 0.0 | 0.0 | 0.00 | 0.00 | 0.00 | 59 | 1015.6 |
| 20260505014133 | 60 | 66 | 0.0 | 1.0 | 0.00 | 0.00 | 0.00 | 59 | 1015.7 |
| 20260505013631 | 60 | 44 | 0.0 | 0.0 | 0.00 | 0.00 | 0.00 | 57 | 1015.3 |
| 20260505013127 | 61 | 44 | 0.0 | 0.0 | 0.00 | 0.00 | 0.00 | 58 | 1015.4 |
| 20260505012626 | 61 | 44 | 0.0 | 0.0 | 0.00 | 0.00 | 0.00 | 56 | 1015.4 |
| 20260505012122 | 61 | 44 | 0.0 | 0.0 | 0.00 | 0.00 | 0.00 | 57 | 1015.1 |
| 20260505011618 | 62 | 44 | 0.0 | 0.0 | 0.00 | 0.00 | 0.00 | 55 | 1015.3 |
| 20260505011115 | 62 | 44 | 0.0 | 0.0 | 0.00 | 0.00 | 0.00 | 54 | 1015.1 |
| 20260505010610 | 63 | 44 | 0.0 | 0.0 | 0.00 | 0.00 | 0.00 | 52 | 1015.2 |
| 20260505010108 | 63 | 44 | 0.0 | 0.0 | 0.00 | 0.00 | 0.00 | 52 | 1015.1 |
| 20260505005604 | 64 | 44 | 0.0 | 0.0 | 0.00 | 0.00 | 0.00 | 50 | 1014.9 |
| 20260505005101 | 64 | 44 | 0.0 | 0.0 | 0.00 | 0.00 | 0.00 | 48 | 1015.1 |
| 20260505004558 | 65 | 44 | 0.0 | 0.0 | 0.00 | 0.00 | 0.00 | 47 | 1015.0 |
| 20260505004055 | 66 | 44 | 0.0 | 0.0 | 0.00 | 0.00 | 0.00 | 47 | 1014.8 |
| 20260505003552 | 68 | 44 | 0.0 | 0.0 | 0.00 | 0.00 | 0.00 | 42 | 1014.6 |
| 20260505003049 | 68 | 44 | 0.0 | 0.0 | 0.00 | 0.00 | 0.00 | 42 | 1014.6 |
| 20260505002549 | 68 | 44 | 0.0 | 0.0 | 0.00 | 0.00 | 0.00 | 42 | 1014.6 |
| 20260505002049 | 68 | 44 | 0.0 | 0.0 | 0.00 | 0.00 | 0.00 | 42 | 1014.6 |
| 20260505001546 | 69 | 44 | 0.0 | 0.0 | 0.00 | 0.00 | 0.00 | 43 | 1014.6 |
| 20260505001043 | 70 | 44 | 0.0 | 0.0 | 0.00 | 0.00 | 0.00 | 39 | 1014.7 |
| 20260505000540 | 71 | 41 | 0.0 | 0.0 | 0.00 | 0.00 | 0.00 | 37 | 1014.5 |
| 20260505000038 | 72 | 57 | 0.0 | 0.0 | 0.00 | 0.00 | 0.00 | 36 | 1014.4 |
| 20260504235534 | 73 | 41 | 0.0 | 0.0 | 0.00 | 0.00 | 0.00 | 34 | 1014.3 |
| 20260504235031 | 73 | 43 | 0.0 | 2.0 | 0.00 | 0.00 | 0.00 | 34 | 1014.4 |
| 20260504234528 | 73 | 62 | 0.0 | 3.0 | 0.00 | 0.00 | 0.00 | 33 | 1014.1 |
| 20260504234025 | 74 | 63 | 1.0 | 2.0 | 0.00 | 0.00 | 0.00 | 33 | 1014.3 |
| 20260504233520 | 74 | 55 | 0.0 | 1.0 | 0.00 | 0.00 | 0.00 | 33 | 1014.3 |
| 20260504233017 | 74 | 59 | 0.0 | 1.0 | 0.00 | 0.00 | 0.00 | 33 | 1014.1 |
| 20260504232514 | 75 | 60 | 0.0 | 1.0 | 0.00 | 0.00 | 0.00 | 33 | 1013.9 |
| 20260504232012 | 75 | 52 | 1.0 | 1.0 | 0.00 | 0.00 | 0.00 | 32 | 1014.0 |
| 20260504231508 | 75 | 57 | 0.0 | 0.0 | 0.00 | 0.00 | 0.00 | 33 | 1014.1 |
| 20260504231004 | 75 | 52 | 0.0 | 2.0 | 0.00 | 0.00 | 0.00 | 31 | 1014.1 |
| 20260504230501 | 76 | 72 | 1.0 | 3.0 | 0.00 | 0.00 | 0.00 | 31 | 1014.1 |
| 20260504230000 | 76 | 137 | 0.0 | 2.0 | 0.00 | 0.00 | 0.00 | 30 | 1014.2 |
| 20260504225456 | 76 | 61 | 0.0 | 2.0 | 0.00 | 0.00 | 0.00 | 31 | 1014.0 |
| 20260504224953 | 76 | 66 | 0.0 | 1.0 | 0.00 | 0.00 | 0.00 | 30 | 1014.1 |
| 20260504224450 | 76 | 52 | 1.0 | 3.0 | 0.00 | 0.00 | 0.00 | 29 | 1014.1 |
| 20260504223947 | 76 | 10 | 0.0 | 1.0 | 0.00 | 0.00 | 0.00 | 29 | 1014.2 |
| 20260504223443 | 77 | 217 | 1.0 | 3.0 | 0.00 | 0.00 | 0.00 | 29 | 1014.3 |
| 20260504222939 | 77 | 49 | 0.0 | 2.0 | 0.00 | 0.00 | 0.00 | 28 | 1014.2 |
| 20260504222437 | 77 | 52 | 0.0 | 1.0 | 0.00 | 0.00 | 0.00 | 29 | 1014.1 |
| 20260504221934 | 77 | 51 | 0.0 | 1.0 | 0.00 | 0.00 | 0.00 | 28 | 1014.2 |
| 20260504221431 | 77 | 150 | 0.0 | 1.0 | 0.00 | 0.00 | 0.00 | 29 | 1014.1 |
| 20260504220928 | 77 | 334 | 2.0 | 6.0 | 0.00 | 0.00 | 0.00 | 27 | 1014.2 |
| 20260504220425 | 78 | 72 | 2.0 | 3.0 | 0.00 | 0.00 | 0.00 | 27 | 1014.2 |
| 20260504215922 | 78 | 126 | 1.0 | 4.0 | 0.00 | 0.00 | 0.00 | 28 | 1014.2 |
| 20260504215418 | 78 | 62 | 0.0 | 2.0 | 0.00 | 0.00 | 0.00 | 28 | 1014.0 |
| 20260504214915 | 78 | 47 | 0.0 | 2.0 | 0.00 | 0.00 | 0.00 | 28 | 1014.0 |
| 20260504214412 | 78 | 60 | 2.0 | 6.0 | 0.00 | 0.00 | 0.00 | 26 | 1013.9 |
| 20260504213908 | 78 | 67 | 1.0 | 3.0 | 0.00 | 0.00 | 0.00 | 27 | 1013.9 |
| 20260504213404 | 78 | 82 | 1.0 | 3.0 | 0.00 | 0.00 | 0.00 | 26 | 1013.9 |
| 20260504212902 | 79 | 100 | 3.0 | 4.0 | 0.00 | 0.00 | 0.00 | 25 | 1013.9 |
| 20260504212357 | 79 | 49 | 0.0 | 1.0 | 0.00 | 0.00 | 0.00 | 25 | 1013.8 |
| 20260504211855 | 79 | 47 | 2.0 | 6.0 | 0.00 | 0.00 | 0.00 | 25 | 1014.1 |
| 20260504211351 | 78 | 105 | 0.0 | 3.0 | 0.00 | 0.00 | 0.00 | 25 | 1014.0 |
| 20260504210849 | 78 | 232 | 1.0 | 3.0 | 0.00 | 0.00 | 0.00 | 25 | 1014.1 |
| 20260504210346 | 78 | 18 | 1.0 | 2.0 | 0.00 | 0.00 | 0.00 | 25 | 1014.0 |
| 20260504205843 | 79 | 54 | 0.0 | 4.0 | 0.00 | 0.00 | 0.00 | 25 | 1014.1 |
| 20260504205341 | 79 | 67 | 0.0 | 1.0 | 0.00 | 0.00 | 0.00 | 28 | 1014.1 |
| 20260504204838 | 79 | 115 | 2.0 | 2.0 | 0.00 | 0.00 | 0.00 | 28 | 1014.1 |
| 20260504204337 | 79 | 101 | 4.0 | 4.0 | 0.00 | 0.00 | 0.00 | 26 | 1014.3 |
| 20260504203836 | 79 | 233 | 1.0 | 2.0 | 0.00 | 0.00 | 0.00 | 28 | 1014.3 |
| 20260504203332 | 79 | 219 | 2.0 | 3.0 | 0.00 | 0.00 | 0.00 | 26 | 1014.3 |
| 20260504202828 | 79 | 29 | 0.0 | 2.0 | 0.00 | 0.00 | 0.00 | 27 | 1014.1 |
| 20260504202326 | 79 | 12 | 0.0 | 1.0 | 0.00 | 0.00 | 0.00 | 29 | 1014.3 |
| 20260504201822 | 78 | 45 | 0.0 | 1.0 | 0.00 | 0.00 | 0.00 | 27 | 1014.5 |
| 20260504201319 | 79 | 20 | 1.0 | 1.0 | 0.00 | 0.00 | 0.00 | 26 | 1014.4 |
| 20260504200817 | 79 | 281 | 1.0 | 2.0 | 0.00 | 0.00 | 0.00 | 29 | 1014.4 |
| 20260504200313 | 80 | 25 | 2.0 | 2.0 | 0.00 | 0.00 | 0.00 | 26 | 1014.5 |
| 20260504195809 | 81 | 9 | 0.0 | 1.0 | 0.00 | 0.00 | 0.00 | 25 | 1014.6 |
| 20260504195305 | 81 | 17 | 2.0 | 2.0 | 0.00 | 0.00 | 0.00 | 27 | 1014.6 |
| 20260504194802 | 81 | 4 | 0.0 | 2.0 | 0.00 | 0.00 | 0.00 | 27 | 1014.8 |
| 20260504194259 | 82 | 39 | 0.0 | 1.0 | 0.00 | 0.00 | 0.00 | 32 | 1014.8 |
| 20260504193755 | 82 | 224 | 2.0 | 3.0 | 0.00 | 0.00 | 0.00 | 26 | 1014.9 |
| 20260504193252 | 82 | 314 | 2.0 | 2.0 | 0.00 | 0.00 | 0.00 | 26 | 1014.9 |
| 20260504192750 | 82 | 183 | 1.0 | 4.0 | 0.00 | 0.00 | 0.00 | 26 | 1015.2 |
| 20260504192248 | 82 | 95 | 4.0 | 6.0 | 0.00 | 0.00 | 0.00 | 25 | 1015.2 |
| 20260504191747 | 81 | 18 | 1.0 | 2.0 | 0.00 | 0.00 | 0.00 | 26 | 1015.2 |
| 20260504191243 | 80 | 110 | 2.0 | 6.0 | 0.00 | 0.00 | 0.00 | 27 | 1015.4 |
| 20260504190739 | 80 | 19 | 0.0 | 1.0 | 0.00 | 0.00 | 0.00 | 28 | 1015.3 |
| 20260504190235 | 81 | 43 | 2.0 | 3.0 | 0.00 | 0.00 | 0.00 | 28 | 1015.4 |
| 20260504185732 | 80 | 40 | 0.0 | 2.0 | 0.00 | 0.00 | 0.00 | 28 | 1015.5 |
| 20260504185229 | 80 | 337 | 1.0 | 2.0 | 0.00 | 0.00 | 0.00 | 25 | 1015.6 |
| 20260504184725 | 80 | 49 | 1.0 | 1.0 | 0.00 | 0.00 | 0.00 | 26 | 1015.9 |
| 20260504184221 | 80 | 9 | 2.0 | 2.0 | 0.00 | 0.00 | 0.00 | 28 | 1015.9 |
| 20260504183717 | 79 | 24 | 1.0 | 2.0 | 0.00 | 0.00 | 0.00 | 27 | 1016.0 |
| 20260504183214 | 79 | 17 | 1.0 | 3.0 | 0.00 | 0.00 | 0.00 | 26 | 1016.1 |
| 20260504182712 | 79 | 24 | 1.0 | 4.0 | 0.00 | 0.00 | 0.00 | 33 | 1016.1 |
| 20260504182209 | 78 | 357 | 1.0 | 4.0 | 0.00 | 0.00 | 0.00 | 27 | 1016.1 |
| 20260504181707 | 77 | 358 | 1.0 | 3.0 | 0.00 | 0.00 | 0.00 | 33 | 1016.3 |
| 20260504181204 | 78 | 19 | 2.0 | 4.0 | 0.00 | 0.00 | 0.00 | 27 | 1016.1 |
| 20260504180703 | 79 | 27 | 0.0 | 2.0 | 0.00 | 0.00 | 0.00 | 30 | 1016.2 |
| 20260504180201 | 80 | 10 | 1.0 | 2.0 | 0.00 | 0.00 | 0.00 | 31 | 1016.1 |
| 20260504175658 | 78 | 57 | 1.0 | 1.0 | 0.00 | 0.00 | 0.00 | 32 | 1016.5 |
| 20260504175155 | 77 | 61 | 0.0 | 1.0 | 0.00 | 0.00 | 0.00 | 32 | 1016.3 |
| 20260504174653 | 78 | 10 | 3.0 | 3.0 | 0.00 | 0.00 | 0.00 | 27 | 1016.4 |
| 20260504174149 | 78 | 21 | 0.0 | 1.0 | 0.00 | 0.00 | 0.00 | 31 | 1016.4 |
| 20260504173646 | 79 | 311 | 2.0 | 2.0 | 0.00 | 0.00 | 0.00 | 28 | 1016.6 |
| 20260504173144 | 78 | 17 | 0.0 | 2.0 | 0.00 | 0.00 | 0.00 | 35 | 1016.5 |
| 20260504172640 | 78 | 312 | 2.0 | 2.0 | 0.00 | 0.00 | 0.00 | 29 | 1016.4 |
| 20260504172137 | 77 | 47 | 1.0 | 2.0 | 0.00 | 0.00 | 0.00 | 29 | 1016.6 |
| 20260504171633 | 77 | 357 | 1.0 | 2.0 | 0.00 | 0.00 | 0.00 | 31 | 1016.8 |
| 20260504171131 | 77 | 12 | 1.0 | 3.0 | 0.00 | 0.00 | 0.00 | 28 | 1016.8 |
| 20260504170627 | 77 | 316 | 2.0 | 4.0 | 0.00 | 0.00 | 0.00 | 30 | 1016.8 |
| 20260504170125 | 77 | 324 | 1.0 | 3.0 | 0.00 | 0.00 | 0.00 | 32 | 1016.7 |
| 20260504151010 | 74 | 63 | 1.0 | 2.0 | 0.00 | 0.00 | 0.00 | 36 | 1017.8 |
| 20260504150508 | 73 | 2 | 0.0 | 1.0 | 0.00 | 0.00 | 0.00 | 39 | 1017.5 |
| 20260504140933 | 70 | 69 | 0.0 | 1.0 | 0.00 | 0.00 | 0.00 | 48 | 1018.0 |
| 20260504140430 | 70 | 31 | 1.0 | 2.0 | 0.00 | 0.00 | 0.00 | 47 | 1017.7 |
| 20260504130354 | 60 | 36 | 0.0 | 1.0 | 0.00 | 0.00 | 0.00 | 72 | 1017.8 |
| 20260504120317 | 50 | 37 | 0.0 | 0.0 | 0.00 | 0.00 | 0.00 | 97 | 1017.6 |